RPC2002 RPLL-RPUS

Flight info

Callsign RPC2002
Flight time 1h 16m
Altitude 8500
Route RPLL RPUS
Aircraft C172/L-SFG/C

Departure

Time 2026-04-26 10:23
Airport Ninoy Aquino International Airport (RPLL)

Arrival

Time 2026-04-26 11:40
Airport San Fernando Airport (RPUS)
Time Latitude Longitude Altitude Speed Heading
2026-04-26 09:59 14.52739 121.00482 64 ft 0 kts 165°
2026-04-26 10:16 14.52717 121.00487 62 ft 8 kts 171°
2026-04-26 10:16 14.52675 121.00492 64 ft 5 kts 188°
2026-04-26 10:17 14.52649 121.00485 64 ft 3 kts 201°
2026-04-26 10:17 14.52628 121.00480 62 ft 4 kts 185°
2026-04-26 10:17 14.52584 121.00472 63 ft 10 kts 190°
2026-04-26 10:17 14.52521 121.00492 64 ft 7 kts 134°
2026-04-26 10:18 14.52487 121.00500 64 ft 4 kts 231°
2026-04-26 10:18 14.52468 121.00473 60 ft 6 kts 225°
2026-04-26 10:18 14.52414 121.00419 63 ft 16 kts 225°
2026-04-26 10:18 14.52333 121.00434 63 ft 13 kts 137°
2026-04-26 10:19 14.52275 121.00492 60 ft 11 kts 135°
2026-04-26 10:19 14.52190 121.00579 62 ft 23 kts 134°
2026-04-26 10:19 14.52084 121.00690 61 ft 18 kts 135°
2026-04-26 10:19 14.52007 121.00771 59 ft 14 kts 135°
2026-04-26 10:20 14.51940 121.00843 57 ft 13 kts 135°
2026-04-26 10:20 14.51871 121.00912 64 ft 15 kts 136°
2026-04-26 10:20 14.51793 121.00990 63 ft 19 kts 134°
2026-04-26 10:20 14.51679 121.01108 63 ft 25 kts 134°
2026-04-26 10:21 14.51567 121.01226 64 ft 25 kts 136°
2026-04-26 10:21 14.51434 121.01364 60 ft 30 kts 130°
2026-04-26 10:21 14.51340 121.01470 63 ft 10 kts 196°
2026-04-26 10:21 14.51359 121.01442 58 ft 6 kts 316°
2026-04-26 10:22 14.51361 121.01440 62 ft 0 kts 307°
2026-04-26 10:22 14.51383 121.01417 62 ft 21 kts 315°
2026-04-26 10:22 14.51596 121.01197 64 ft 65 kts 315°
2026-04-26 10:22 14.51982 121.00794 99 ft 90 kts 313°
2026-04-26 10:23 14.52397 121.00317 296 ft 89 kts 311°
2026-04-26 10:23 14.52798 120.99809 503 ft 90 kts 309°
2026-04-26 10:23 14.53185 120.99324 695 ft 87 kts 309°
2026-04-26 10:23 14.53553 120.98818 861 ft 89 kts 309°
2026-04-26 10:24 14.53907 120.98288 1034 ft 91 kts 310°
2026-04-26 10:24 14.54248 120.97745 1240 ft 97 kts 307°
2026-04-26 10:24 14.54626 120.97183 1418 ft 92 kts 320°
2026-04-26 10:24 14.55048 120.96682 1583 ft 92 kts 318°
2026-04-26 10:25 14.55476 120.96177 1752 ft 92 kts 319°
2026-04-26 10:25 14.55896 120.95705 1983 ft 89 kts 321°
2026-04-26 10:25 14.56325 120.95242 2126 ft 98 kts 320°
2026-04-26 10:25 14.56854 120.94740 1958 ft 100 kts 328°
2026-04-26 10:26 14.57406 120.94332 1848 ft 91 kts 338°
2026-04-26 10:26 14.57978 120.94059 1709 ft 90 kts 348°
2026-04-26 10:26 14.58559 120.93869 1615 ft 83 kts 351°
2026-04-26 10:26 14.59108 120.93691 1533 ft 86 kts 350°
2026-04-26 10:27 14.59720 120.93494 1539 ft 96 kts 351°
2026-04-26 10:27 14.60382 120.93293 1541 ft 102 kts 351°
2026-04-26 10:27 14.61083 120.93090 1537 ft 107 kts 351°
2026-04-26 10:27 14.61805 120.92888 1541 ft 108 kts 351°
2026-04-26 10:28 14.62543 120.92689 1541 ft 112 kts 351°
2026-04-26 10:28 14.63311 120.92485 1529 ft 112 kts 352°
2026-04-26 10:28 14.64043 120.92277 1516 ft 106 kts 351°
2026-04-26 10:28 14.64737 120.92068 1514 ft 101 kts 351°
2026-04-26 10:29 14.65432 120.91855 1516 ft 105 kts 351°
2026-04-26 10:29 14.66137 120.91643 1518 ft 106 kts 351°
2026-04-26 10:29 14.66850 120.91428 1522 ft 107 kts 351°
2026-04-26 10:29 14.67573 120.91210 1529 ft 111 kts 351°
2026-04-26 10:30 14.68330 120.90981 1532 ft 113 kts 351°
2026-04-26 10:30 14.69095 120.90751 1534 ft 115 kts 349°
2026-04-26 10:30 14.69869 120.90528 1536 ft 117 kts 351°
2026-04-26 10:30 14.70655 120.90297 1538 ft 118 kts 351°
2026-04-26 10:31 14.71464 120.90065 1527 ft 122 kts 351°
2026-04-26 10:31 14.72282 120.89839 1531 ft 121 kts 351°
2026-04-26 10:31 14.73096 120.89618 1534 ft 121 kts 351°
2026-04-26 10:31 14.73918 120.89393 1528 ft 122 kts 351°
2026-04-26 10:32 14.74729 120.89176 1524 ft 119 kts 351°
2026-04-26 10:32 14.75524 120.88961 1532 ft 118 kts 351°
2026-04-26 10:32 14.76334 120.88745 1528 ft 120 kts 351°
2026-04-26 10:32 14.77145 120.88540 1526 ft 121 kts 351°
2026-04-26 10:33 14.77953 120.88340 1513 ft 115 kts 352°
2026-04-26 10:33 14.78696 120.88148 1523 ft 110 kts 352°
2026-04-26 10:33 14.79471 120.87948 1527 ft 116 kts 352°
2026-04-26 10:33 14.80215 120.87599 1514 ft 117 kts 333°
2026-04-26 10:34 14.80902 120.87166 1527 ft 114 kts 334°
2026-04-26 10:34 14.81580 120.86735 1522 ft 115 kts 333°
2026-04-26 10:34 14.82231 120.86325 1513 ft 104 kts 333°
2026-04-26 10:34 14.82821 120.85941 1508 ft 98 kts 333°
2026-04-26 10:35 14.83392 120.85570 1515 ft 96 kts 333°
2026-04-26 10:35 14.83997 120.85189 1529 ft 108 kts 332°
2026-04-26 10:35 14.84651 120.84784 1514 ft 107 kts 333°
2026-04-26 10:35 14.85276 120.84394 1514 ft 106 kts 333°
2026-04-26 10:36 14.85911 120.83986 1531 ft 110 kts 331°
2026-04-26 10:36 14.86573 120.83566 1527 ft 116 kts 333°
2026-04-26 10:36 14.87253 120.83145 1564 ft 108 kts 333°
2026-04-26 10:36 14.87891 120.82747 1715 ft 107 kts 332°
2026-04-26 10:37 14.88564 120.82321 1746 ft 122 kts 333°
2026-04-26 10:37 14.89275 120.81869 1870 ft 117 kts 332°
2026-04-26 10:38 14.89567 120.81689 1975 ft 113 kts 332°
2026-04-26 10:38 14.90244 120.81290 2133 ft 107 kts 344°
2026-04-26 10:38 14.90966 120.81148 2341 ft 107 kts 355°
2026-04-26 10:38 14.91680 120.81029 2570 ft 102 kts 356°
2026-04-26 10:39 14.92420 120.80928 2763 ft 111 kts 356°
2026-04-26 10:39 14.93157 120.80834 2959 ft 109 kts 356°
2026-04-26 10:39 14.93885 120.80746 3189 ft 101 kts 355°
2026-04-26 10:39 14.94381 120.80691 3352 ft 94 kts 355°
2026-04-26 10:40 14.94999 120.80623 3571 ft 86 kts 355°
2026-04-26 10:40 14.95618 120.80557 3701 ft 88 kts 355°
2026-04-26 10:40 14.96222 120.80492 3899 ft 87 kts 355°
2026-04-26 10:40 14.96824 120.80429 4120 ft 87 kts 355°
2026-04-26 10:41 14.97424 120.80370 4285 ft 87 kts 355°
2026-04-26 10:41 14.98024 120.80314 4443 ft 86 kts 355°
2026-04-26 10:41 14.98624 120.80260 4609 ft 86 kts 355°
2026-04-26 10:41 14.99220 120.80208 4759 ft 86 kts 355°
2026-04-26 10:42 14.99818 120.80155 4911 ft 86 kts 355°
2026-04-26 10:42 15.00413 120.80102 5055 ft 86 kts 356°
2026-04-26 10:42 15.01012 120.80059 5204 ft 86 kts 356°
2026-04-26 10:42 15.01610 120.80016 5348 ft 86 kts 356°
2026-04-26 10:43 15.02209 120.79972 5490 ft 86 kts 356°
2026-04-26 10:43 15.02808 120.79929 5633 ft 86 kts 356°
2026-04-26 10:43 15.03407 120.79884 5773 ft 86 kts 356°
2026-04-26 10:43 15.04007 120.79839 5916 ft 86 kts 356°
2026-04-26 10:44 15.04607 120.79794 6048 ft 87 kts 356°
2026-04-26 10:44 15.05208 120.79748 6183 ft 87 kts 356°
2026-04-26 10:44 15.05809 120.79703 6324 ft 87 kts 356°
2026-04-26 10:44 15.06412 120.79657 6446 ft 87 kts 356°
2026-04-26 10:45 15.07015 120.79611 6573 ft 87 kts 356°
2026-04-26 10:45 15.07617 120.79566 6698 ft 87 kts 356°
2026-04-26 10:45 15.08218 120.79521 6813 ft 87 kts 356°
2026-04-26 10:45 15.08822 120.79477 6939 ft 87 kts 356°
2026-04-26 10:46 15.09424 120.79434 7061 ft 87 kts 356°
2026-04-26 10:46 15.10028 120.79391 7180 ft 87 kts 356°
2026-04-26 10:46 15.10631 120.79349 7300 ft 87 kts 356°
2026-04-26 10:46 15.11235 120.79308 7419 ft 87 kts 356°
2026-04-26 10:47 15.11843 120.79267 7540 ft 87 kts 356°
2026-04-26 10:47 15.12448 120.79228 7655 ft 87 kts 356°
2026-04-26 10:47 15.13051 120.79189 7776 ft 87 kts 356°
2026-04-26 10:47 15.13657 120.79151 7892 ft 87 kts 356°
2026-04-26 10:48 15.14272 120.79113 8009 ft 87 kts 356°
2026-04-26 10:48 15.14878 120.79074 8118 ft 87 kts 356°
2026-04-26 10:48 15.15487 120.79036 8228 ft 88 kts 356°
2026-04-26 10:48 15.16096 120.78999 8337 ft 88 kts 356°
2026-04-26 10:49 15.16706 120.78963 8450 ft 88 kts 356°
2026-04-26 10:49 15.17315 120.78927 8546 ft 90 kts 356°
2026-04-26 10:49 15.17974 120.78891 8563 ft 99 kts 356°
2026-04-26 10:49 15.18709 120.78852 8562 ft 108 kts 357°
2026-04-26 10:50 15.19481 120.78811 8561 ft 114 kts 357°
2026-04-26 10:50 15.20010 120.78784 8558 ft 115 kts 357°
2026-04-26 10:50 15.21052 120.78732 8561 ft 110 kts 357°
2026-04-26 10:50 15.21816 120.78693 8560 ft 109 kts 357°
2026-04-26 10:51 15.22572 120.78653 8558 ft 108 kts 357°
2026-04-26 10:51 15.24078 120.78577 8552 ft 109 kts 357°
2026-04-26 10:51 15.24831 120.78538 8552 ft 108 kts 357°
2026-04-26 10:52 15.25582 120.78501 8554 ft 108 kts 357°
2026-04-26 10:52 15.26334 120.78465 8553 ft 108 kts 357°
2026-04-26 10:52 15.27083 120.78430 8550 ft 108 kts 357°
2026-04-26 10:52 15.27830 120.78394 8554 ft 107 kts 357°
2026-04-26 10:53 15.28577 120.78358 8553 ft 107 kts 357°
2026-04-26 10:53 15.29322 120.78322 8550 ft 107 kts 357°
2026-04-26 10:53 15.30069 120.78287 8551 ft 107 kts 357°
2026-04-26 10:54 15.31558 120.78217 8556 ft 107 kts 357°
2026-04-26 10:54 15.32291 120.78182 8551 ft 107 kts 357°
2026-04-26 10:54 15.33035 120.78145 8549 ft 107 kts 357°
2026-04-26 10:54 15.33781 120.78108 8549 ft 107 kts 357°
2026-04-26 10:55 15.34528 120.78072 8552 ft 108 kts 357°
2026-04-26 10:55 15.35288 120.78037 8558 ft 108 kts 357°
2026-04-26 10:55 15.36040 120.78001 8551 ft 108 kts 357°
2026-04-26 10:55 15.36540 120.77978 8552 ft 109 kts 357°
2026-04-26 10:56 15.37552 120.77932 8551 ft 109 kts 357°
2026-04-26 10:56 15.38308 120.77897 8553 ft 109 kts 357°
2026-04-26 10:56 15.39064 120.77861 8557 ft 109 kts 357°
2026-04-26 10:56 15.39820 120.77826 8553 ft 109 kts 357°
2026-04-26 10:57 15.40577 120.77791 8550 ft 109 kts 357°
2026-04-26 10:57 15.41337 120.77757 8553 ft 109 kts 357°
2026-04-26 10:57 15.42094 120.77721 8552 ft 109 kts 357°
2026-04-26 10:57 15.42854 120.77682 8550 ft 109 kts 357°
2026-04-26 10:58 15.43615 120.77646 8554 ft 109 kts 357°
2026-04-26 10:58 15.44376 120.77612 8551 ft 110 kts 357°
2026-04-26 10:58 15.45140 120.77578 8548 ft 110 kts 357°
2026-04-26 10:58 15.45901 120.77545 8547 ft 110 kts 357°
2026-04-26 10:59 15.46666 120.77512 8546 ft 110 kts 357°
2026-04-26 10:59 15.47429 120.77477 8543 ft 110 kts 357°
2026-04-26 10:59 15.48193 120.77442 8552 ft 110 kts 357°
2026-04-26 10:59 15.48956 120.77409 8557 ft 110 kts 357°
2026-04-26 11:00 15.49732 120.77375 8554 ft 110 kts 357°
2026-04-26 11:00 15.50487 120.77264 8556 ft 110 kts 346°
2026-04-26 11:00 15.51224 120.77065 8548 ft 110 kts 336°
2026-04-26 11:00 15.51899 120.76702 8548 ft 109 kts 332°
2026-04-26 11:01 15.52574 120.76336 8554 ft 110 kts 332°
2026-04-26 11:01 15.53250 120.75969 8549 ft 110 kts 332°
2026-04-26 11:01 15.53926 120.75602 8550 ft 110 kts 332°
2026-04-26 11:01 15.54604 120.75235 8554 ft 110 kts 332°
2026-04-26 11:02 15.55283 120.74866 8553 ft 110 kts 332°
2026-04-26 11:02 15.55964 120.74494 8560 ft 111 kts 332°
2026-04-26 11:02 15.56648 120.74122 8565 ft 111 kts 332°
2026-04-26 11:02 15.57331 120.73749 8560 ft 111 kts 332°
2026-04-26 11:03 15.58017 120.73378 8563 ft 111 kts 333°
2026-04-26 11:03 15.58722 120.73046 8563 ft 112 kts 336°
2026-04-26 11:03 15.59433 120.72722 8563 ft 112 kts 336°
2026-04-26 11:03 15.60157 120.72393 8563 ft 112 kts 336°
2026-04-26 11:04 15.60632 120.72183 8562 ft 112 kts 337°
2026-04-26 11:04 15.61354 120.71871 8571 ft 113 kts 336°
2026-04-26 11:04 15.62076 120.71557 8567 ft 113 kts 337°
2026-04-26 11:04 15.62799 120.71242 8565 ft 113 kts 337°
2026-04-26 11:05 15.63528 120.70926 8568 ft 113 kts 337°
2026-04-26 11:05 15.64264 120.70606 8570 ft 113 kts 337°
2026-04-26 11:05 15.64993 120.70290 8570 ft 113 kts 337°
2026-04-26 11:05 15.65721 120.69974 8573 ft 114 kts 337°
2026-04-26 11:06 15.66451 120.69657 8572 ft 114 kts 337°
2026-04-26 11:06 15.67180 120.69340 8569 ft 114 kts 337°
2026-04-26 11:06 15.67911 120.69023 8570 ft 114 kts 337°
2026-04-26 11:06 15.68642 120.68706 8569 ft 114 kts 337°
2026-04-26 11:07 15.69375 120.68390 8571 ft 114 kts 336°
2026-04-26 11:07 15.70107 120.68074 8575 ft 114 kts 337°
2026-04-26 11:07 15.70838 120.67759 8575 ft 114 kts 336°
2026-04-26 11:07 15.71569 120.67445 8573 ft 114 kts 337°
2026-04-26 11:08 15.72300 120.67131 8574 ft 114 kts 337°
2026-04-26 11:08 15.73031 120.66818 8570 ft 114 kts 336°
2026-04-26 11:08 15.73760 120.66505 8569 ft 114 kts 337°
2026-04-26 11:08 15.74491 120.66192 8568 ft 114 kts 337°
2026-04-26 11:09 15.75222 120.65880 8570 ft 114 kts 336°
2026-04-26 11:09 15.75922 120.65584 8569 ft 114 kts 337°
2026-04-26 11:09 15.76654 120.65272 8574 ft 114 kts 336°
2026-04-26 11:09 15.77389 120.64960 8574 ft 114 kts 337°
2026-04-26 11:10 15.78123 120.64650 8574 ft 114 kts 337°
2026-04-26 11:10 15.78857 120.64340 8576 ft 114 kts 337°
2026-04-26 11:10 15.79591 120.64030 8577 ft 114 kts 337°
2026-04-26 11:10 15.80337 120.63716 8576 ft 114 kts 336°
2026-04-26 11:11 15.81073 120.63407 8575 ft 114 kts 337°
2026-04-26 11:11 15.81749 120.63123 8574 ft 114 kts 336°
2026-04-26 11:11 15.82485 120.62815 8575 ft 114 kts 336°
2026-04-26 11:11 15.83220 120.62508 8573 ft 114 kts 336°
2026-04-26 11:12 15.83955 120.62202 8575 ft 114 kts 336°
2026-04-26 11:12 15.84688 120.61897 8575 ft 113 kts 337°
2026-04-26 11:12 15.85420 120.61595 8571 ft 113 kts 337°
2026-04-26 11:12 15.86152 120.61293 8572 ft 113 kts 336°
2026-04-26 11:13 15.86884 120.60994 8574 ft 113 kts 338°
2026-04-26 11:13 15.87612 120.60693 8574 ft 113 kts 336°
2026-04-26 11:13 15.88338 120.60392 8573 ft 112 kts 337°
2026-04-26 11:13 15.89064 120.60096 8573 ft 112 kts 337°
2026-04-26 11:14 15.89789 120.59803 8572 ft 112 kts 336°
2026-04-26 11:14 15.90512 120.59510 8574 ft 112 kts 337°
2026-04-26 11:14 15.91234 120.59214 8572 ft 111 kts 337°
2026-04-26 11:14 15.91956 120.58921 8576 ft 111 kts 337°
2026-04-26 11:15 15.92678 120.58630 8573 ft 111 kts 336°
2026-04-26 11:15 15.93401 120.58338 8574 ft 112 kts 336°
2026-04-26 11:15 15.94124 120.58044 8575 ft 112 kts 336°
2026-04-26 11:15 15.94847 120.57750 8577 ft 112 kts 337°
2026-04-26 11:16 15.95572 120.57455 8582 ft 112 kts 336°
2026-04-26 11:16 15.96296 120.57163 8579 ft 112 kts 336°
2026-04-26 11:16 15.97022 120.56869 8583 ft 112 kts 336°
2026-04-26 11:16 15.97749 120.56574 8585 ft 112 kts 336°
2026-04-26 11:17 15.98487 120.56276 8580 ft 112 kts 338°
2026-04-26 11:17 15.99215 120.55983 8577 ft 113 kts 338°
2026-04-26 11:17 15.99944 120.55690 8581 ft 112 kts 336°
2026-04-26 11:17 16.00673 120.55396 8581 ft 112 kts 337°
2026-04-26 11:18 16.01401 120.55104 8580 ft 112 kts 337°
2026-04-26 11:18 16.02127 120.54813 8585 ft 112 kts 337°
2026-04-26 11:18 16.02855 120.54522 8583 ft 112 kts 337°
2026-04-26 11:18 16.03581 120.54232 8581 ft 112 kts 338°
2026-04-26 11:19 16.04306 120.53942 8583 ft 112 kts 337°
2026-04-26 11:19 16.05030 120.53652 8582 ft 111 kts 336°
2026-04-26 11:19 16.05754 120.53361 8582 ft 112 kts 337°
2026-04-26 11:19 16.06483 120.53068 8583 ft 112 kts 336°
2026-04-26 11:20 16.07211 120.52775 8593 ft 112 kts 336°
2026-04-26 11:20 16.07704 120.52577 8588 ft 112 kts 337°
2026-04-26 11:20 16.08672 120.52187 8585 ft 113 kts 337°
2026-04-26 11:20 16.09404 120.51891 8584 ft 112 kts 337°
2026-04-26 11:21 16.10132 120.51597 8585 ft 112 kts 336°
2026-04-26 11:21 16.10857 120.51302 8584 ft 112 kts 337°
2026-04-26 11:21 16.11591 120.51000 8583 ft 112 kts 336°
2026-04-26 11:21 16.12317 120.50704 8584 ft 112 kts 337°
2026-04-26 11:22 16.13045 120.50407 8583 ft 112 kts 337°
2026-04-26 11:22 16.13772 120.50109 8584 ft 112 kts 337°
2026-04-26 11:22 16.14498 120.49808 8587 ft 113 kts 337°
2026-04-26 11:22 16.15229 120.49505 8589 ft 113 kts 336°
2026-04-26 11:23 16.15958 120.49203 8589 ft 113 kts 336°
2026-04-26 11:23 16.16688 120.48901 8591 ft 113 kts 337°
2026-04-26 11:23 16.17420 120.48598 8590 ft 113 kts 338°
2026-04-26 11:23 16.18147 120.48288 8589 ft 113 kts 332°
2026-04-26 11:24 16.18831 120.47889 8590 ft 113 kts 329°
2026-04-26 11:24 16.19477 120.47509 8589 ft 113 kts 329°
2026-04-26 11:24 16.20162 120.47102 8562 ft 115 kts 329°
2026-04-26 11:24 16.20856 120.46695 8467 ft 114 kts 329°
2026-04-26 11:25 16.21557 120.46284 8368 ft 114 kts 329°
2026-04-26 11:25 16.22249 120.45876 8273 ft 114 kts 329°
2026-04-26 11:25 16.22938 120.45470 8177 ft 114 kts 329°
2026-04-26 11:25 16.23629 120.45060 8079 ft 114 kts 329°
2026-04-26 11:26 16.24322 120.44648 7983 ft 115 kts 329°
2026-04-26 11:26 16.25019 120.44233 7890 ft 116 kts 329°
2026-04-26 11:26 16.25719 120.43814 7794 ft 116 kts 329°
2026-04-26 11:26 16.26423 120.43396 7689 ft 117 kts 329°
2026-04-26 11:27 16.27133 120.42974 7551 ft 118 kts 329°
2026-04-26 11:27 16.27844 120.42550 7411 ft 118 kts 329°
2026-04-26 11:27 16.28554 120.42124 7269 ft 118 kts 329°
2026-04-26 11:27 16.29264 120.41701 7124 ft 118 kts 329°
2026-04-26 11:28 16.29972 120.41279 6980 ft 117 kts 329°
2026-04-26 11:28 16.30676 120.40863 6805 ft 115 kts 330°
2026-04-26 11:28 16.31377 120.40448 6594 ft 116 kts 329°
2026-04-26 11:28 16.32076 120.40028 6380 ft 116 kts 329°
2026-04-26 11:29 16.32769 120.39610 6167 ft 115 kts 329°
2026-04-26 11:29 16.33455 120.39198 5952 ft 114 kts 329°
2026-04-26 11:29 16.34146 120.38783 5696 ft 115 kts 330°
2026-04-26 11:29 16.34838 120.38363 5435 ft 115 kts 329°
2026-04-26 11:30 16.35527 120.37945 5172 ft 114 kts 329°
2026-04-26 11:30 16.35987 120.37663 5005 ft 113 kts 329°
2026-04-26 11:30 16.36875 120.37114 4684 ft 110 kts 329°
2026-04-26 11:30 16.37523 120.36711 4461 ft 107 kts 330°
2026-04-26 11:31 16.38155 120.36309 4238 ft 106 kts 330°
2026-04-26 11:31 16.38776 120.35906 4019 ft 105 kts 330°
2026-04-26 11:31 16.39388 120.35501 3801 ft 103 kts 329°
2026-04-26 11:31 16.39990 120.35099 3585 ft 102 kts 330°
2026-04-26 11:32 16.40582 120.34699 3363 ft 100 kts 329°
2026-04-26 11:32 16.41145 120.34309 3190 ft 94 kts 329°
2026-04-26 11:32 16.41681 120.33933 3012 ft 91 kts 329°
2026-04-26 11:32 16.42215 120.33575 2827 ft 88 kts 340°
2026-04-26 11:33 16.42805 120.33411 2661 ft 89 kts 346°
2026-04-26 11:33 16.43408 120.33230 2495 ft 91 kts 346°
2026-04-26 11:33 16.44019 120.33043 2332 ft 92 kts 345°
2026-04-26 11:33 16.44639 120.32851 2169 ft 94 kts 344°
2026-04-26 11:34 16.45286 120.32646 2009 ft 100 kts 344°
2026-04-26 11:34 16.45958 120.32433 1849 ft 101 kts 343°
2026-04-26 11:34 16.46631 120.32219 1691 ft 105 kts 344°
2026-04-26 11:34 16.47335 120.31991 1594 ft 105 kts 344°
2026-04-26 11:35 16.47792 120.31838 1595 ft 102 kts 342°
2026-04-26 11:35 16.48479 120.31605 1594 ft 104 kts 343°
2026-04-26 11:35 16.49158 120.31383 1596 ft 101 kts 343°
2026-04-26 11:35 16.49764 120.31186 1587 ft 99 kts 344°
2026-04-26 11:36 16.50421 120.30976 1503 ft 95 kts 345°
2026-04-26 11:36 16.51019 120.30790 1386 ft 85 kts 343°
2026-04-26 11:36 16.51556 120.30617 1282 ft 78 kts 343°
2026-04-26 11:36 16.52072 120.30454 1190 ft 78 kts 344°
2026-04-26 11:37 16.52599 120.30290 1097 ft 80 kts 343°
2026-04-26 11:37 16.53134 120.30113 1009 ft 85 kts 342°
2026-04-26 11:37 16.53737 120.29956 1021 ft 93 kts 350°
2026-04-26 11:37 16.54368 120.29857 1097 ft 92 kts 359°
2026-04-26 11:38 16.55028 120.29875 1124 ft 99 kts
2026-04-26 11:38 16.55741 120.29945 1166 ft 102 kts
2026-04-26 11:38 16.56410 120.30011 1137 ft 94 kts
2026-04-26 11:38 16.57001 120.30070 994 ft 78 kts 338°
2026-04-26 11:39 16.57597 120.30120 792 ft 90 kts
2026-04-26 11:39 16.58168 120.30164 587 ft 80 kts 338°
2026-04-26 11:39 16.58692 120.30215 219 ft 75 kts 346°
2026-04-26 11:39 16.59187 120.30285 42 ft 63 kts
2026-04-26 11:40 16.59540 120.30328 31 ft 41 kts 359°
2026-04-26 11:40 16.59776 120.30342 31 ft 31 kts 359°
2026-04-26 11:40 16.59855 120.30404 32 ft 15 kts 129°
2026-04-26 11:40 16.59839 120.30500 32 ft 13 kts 73°
2026-04-26 11:41 16.59889 120.30546 31 ft 6 kts 51°